Regional Weather Roundup
Issued by NWS Newport/Morehead, NC

Current Version | Previous Version | Graphics & Text | Print | Product List | Glossary On
Versions: 1 2 3 4 5 6 7 8 9 10 11 12 13 14 15 16 17 18 19 20 21 22 23 24 25 26 27 28 29 30 31 32 33 34 35 36 37 38 39 40 41 42 43 44 45 46 47 48 49 50
000 ASUS42 KMHX 141410 RWRMHX WEATHER ROUNDUP FOR EASTERN NORTH CAROLINA NATIONAL WEATHER SERVICE NEWPORT/MOREHEAD CITY NC 1000 AM EDT SUN SEP 14 2014 NOTE: "FAIR" INDICATES FEW OR NO CLOUDS BELOW 12,000 FEET WITH NO SIGNIFICANT WEATHER AND/OR OBSTRUCTIONS TO VISIBILITY NCZ015>017-031-032-045>047-102-103-141500- NORTH COAST CITY SKY/WX TMP DP RH WIND PRES REMARKS EDENTON SUNNY 70 60 72 E13 30.25R ELIZABETH CITY PTSUNNY 70 61 73 N15 30.26R KITTY HAWK CLOUDY 70 62 75 N12G21 30.23R MANTEO CLOUDY 71 63 76 N15G22 30.24R $$ NCZ045>047-081-094-103-104-141500- CENTRAL COAST CITY SKY/WX TMP DP RH WIND PRES REMARKS FRISCO CLOUDY 72 67 84 NE10G20 30.20R SWANQUARTER N/A 72 N/A N/A NE9G17 30.18S $$ NCZ095-097-098-100-101-141500- SOUTHERN COAST CITY SKY/WX TMP DP RH WIND PRES REMARKS BEAUFORT CLOUDY 73 64 73 NE9G18 30.21R CEDAR ISLAND N/A 73 N/A N/A N16G24 30.24S JACKSONVILLE CLOUDY 70 62 76 NE12 30.22R NEWPORT NOT AVBL PINEY ISLAND CLOUDY 74 63 68 NE16G25 30.22R WILMINGTON CLOUDY 70 64 81 NE14 30.21R $$ NCZ011>013-027>030-043-044-078>080-089-090>093-098-141500- COASTAL PLAIN CITY SKY/WX TMP DP RH WIND PRES REMARKS AHOSKIE MOSUNNY 67 58 72 N9 30.27R CLINTON CLOUDY 67 61 81 NE6 30.25S ELIZABETHTOWN CLOUDY 66 61 83 NE3 30.22S GOLDSBORO CLOUDY 66 63 89 NE9 30.23S GREENVILLE MOSUNNY 70 59 68 NE13 30.26R HAVELOCK CLOUDY 73 62 68 NE15 30.23R KENANSVILLE CLOUDY 66 59 77 NE6 30.25S KINSTON CLOUDY 68 59 73 NE10 30.26R NEW BERN CLOUDY 72 61 68 NE13 30.24R RICHLANDS CLOUDY 68 61 77 N10 30.24R ROANOKE RAPIDS NOT AVBL ROCKY MOUNT PTSUNNY 69 58 67 NE8 30.26S WASHINGTON CLOUDY 67 59 75 NE9 30.25R WHITEVILLE CLOUDY 65 63 91 NE6 30.21S $$ AMZ130-135-150-152-154-156-158-170-250-252-270-ANZ085-086-088-633-658-670-141500- MARINE OBSERVATIONS STATION/POSITION TIME TEMP WIND PRES WAVE SWELL AIR SEA DIR/SP/G HT/PER HT/PER (UTC) (F) (DEG/KT/KT) (MB) (FT/S) (FT/S) CHESAPEAKE LIGHT 1300 67 20/ 23/ 25 1023.9 BUOY 44014 1400 72 79 30/ 19/ 21 1022.4 6/ 7 2/14 DUCK 1400 70 77 10/ 20/ 23 1023.0 2E DUCK 1400 N/A 6/ 6 OREGON INLET 1400 71 78 360/ 12/ 18 1023.2 BUOY 44095 1400 76 N/A 6/ 7 20E OREGON INLET NOT AVBL HATTERAS CG 1400 73 80 40/ 11/ 15 1023.2 DIAMOND BUOY 1400 74 360/ 19/ 23 1021.6 4/ 6 CAPE LOOKOUT 1300 73 20/ 17/ 20 1022.2 BEAUFORT LAB 1400 72 81 30/ 11/ 16 1022.6 30 SE NEW RIVER 1400 76 82 30/ 19/ 25 1022.0 5/ 5 5 SE WRIGHTSVILL 1300 70 82 40/ 17/ 21 N/A BUOY 41002 1350 78 83 190/ 6/ 6 1022.3 2/ 4 2/ 4 BUOY 41004 1400 77 83 350/ 10/ 12 1021.3 3/ 4 2/ 5 $$

USA.gov is the U.S. government's official web portal to all federal, state and local government web resources and services.